QPF
0.01 0.00 0.00 0.00 0.00 0.00 0.00 0.00 0.00 0.00 0.00 0.00 0.00 0.00 0.00 0.00 0.00 0.00 0.00 0.00 0.00 0.00 0.00 0.00 0.00 0.00 0.00 0.00 0.00 0.00 0.00 0.00 0.00 0.00 0.00 0.00 0.00 0.00
0.00 0.00 0.00 0.00 0.00 0.00 0.00 0.00 0.00 0.00 0.00 0.00 0.00 0.00 0.00 0.00 0.00 0.00 0.00 0.00 0.00 0.00 0.00 0.00 0.00 0.00 0.00 0.00 0.00 0.00 0.00 0.00 0.00 0.00 0.00 0.00 0.00 0.00
0.00 0.00 0.00 0.00 0.00 0.00 0.00 0.00 0.00 0.00 0.00 0.00 0.00 0.00 0.00 0.00 0.00 0.00 0.00 0.00 0.00 0.00 0.00 0.00 0.00 0.00 0.00 0.00 0.00 0.00 0.00 0.00 0.00 0.00 0.00 0.00 0.00 0.00
0.00 0.00 0.00 0.00 0.00 0.00 0.00 0.00 0.00 0.00 0.00 0.00 0.00 0.00 0.00 0.00 0.00 0.00 0.00 0.00 0.00 0.00 0.00 0.00 0.00 0.00 0.00 0.00 0.00 0.00 0.00 0.00 0.00 0.00 0.00 0.00 0.00 0.00
0.01 0.00 0.00 0.00 0.00 0.00 0.00 0.00 0.00 0.00 0.00 0.00 0.00 0.00 0.00 0.00 0.00 0.00 0.00 0.00 0.00 0.00 0.00 0.00 0.00 0.00 0.00 0.00 0.00 0.00 0.00 0.00 0.00 0.00 0.00 0.00 0.00 0.00
0.01 0.01 0.00 0.00 0.00 0.00 0.00 0.00 0.00 0.00 0.00 0.00 0.00 0.00 0.00 0.00 0.00 0.00 0.00 0.00 0.00 0.00 0.00 0.00 0.00 0.00 0.00 0.00 0.00 0.00 0.00 0.00 0.00 0.00 0.00 0.00 0.00 0.00
0.02 0.01 0.00 0.00 0.00 0.01 0.00 0.00 0.00 0.00 0.00 0.00 0.00 0.00 0.00 0.00 0.00 0.00 0.00 0.00 0.00 0.00 0.00 0.00 0.00 0.00 0.00 0.00 0.00 0.00 0.00 0.00 0.00 0.00 0.00 0.00 0.00 0.00
0.04 0.03 0.01 0.01 0.01 0.01 0.01 0.01 0.00 0.00 0.00 0.00 0.00 0.00 0.00 0.00 0.00 0.00 0.00 0.00 0.00 0.00 0.00 0.00 0.00 0.00 0.00 0.00 0.00 0.00 0.00 0.00 0.00 0.00 0.00 0.00 0.00 0.00
0.06 0.05 0.04 0.02 0.02 0.02 0.02 0.01 0.01 0.00 0.00 0.00 0.00 0.00 0.00 0.00 0.00 0.00 0.00 0.00 0.00 0.00 0.00 0.00 0.00 0.00 0.00 0.00 0.00 0.00 0.00 0.00 0.00 0.00 0.00 0.00 0.00 0.00
0.07 0.06 0.05 0.03 0.02 0.02 0.02 0.01 0.01 0.01 0.00 0.00 0.00 0.00 0.00 0.00 0.00 0.00 0.00 0.00 0.00 0.00 0.00 0.00 0.00 0.00 0.00 0.00 0.00 0.00 0.00 0.00 0.00 0.00 0.00 0.00 0.00 0.00
0.05 0.06 0.05 0.04 0.03 0.03 0.02 0.01 0.01 0.01 0.00 0.00 0.00 0.00 0.00 0.00 0.00 0.00 0.00 0.00 0.00 0.00 0.00 0.00 0.00 0.00 0.00 0.00 0.00 0.00 0.00 0.00 0.00 0.00 0.00 0.00 0.00 0.00
0.03 0.04 0.04 0.05 0.04 0.04 0.03 0.02 0.02 0.01 0.00 0.00 0.00 0.00 0.00 0.00 0.00 0.00 0.00 0.00 0.00 0.00 0.00 0.00 0.00 0.00 0.00 0.00 0.00 0.00 0.00 0.00 0.00 0.00 0.00 0.00 0.00 0.00
0.03 0.04 0.04 0.05 0.05 0.04 0.04 0.03 0.03 0.02 0.01 0.00 0.00 0.00 0.00 0.01 0.01 0.01 0.02 0.02 0.02 0.01 0.01 0.01 0.01 0.01 0.01 0.00 0.00 0.00 0.00 0.00 0.00 0.01 0.01 0.01 0.01 0.00
0.05 0.04 0.05 0.05 0.03 0.03 0.02 0.02 0.02 0.02 0.01 0.01 0.01 0.01 0.01 0.01 0.01 0.01 0.02 0.02 0.02 0.02 0.02 0.02 0.03 0.03 0.03 0.03 0.02 0.01 0.01 0.01 0.01 0.01 0.01 0.01 0.01 0.01
0.03 0.04 0.04 0.04 0.03 0.02 0.02 0.02 0.01 0.01 0.01 0.01 0.01 0.01 0.01 0.01 0.01 0.01 0.01 0.01 0.02 0.02 0.03 0.03 0.05 0.06 0.07 0.07 0.06 0.04 0.04 0.03 0.03 0.03 0.02 0.01 0.01 0.00
0.04 0.03 0.03 0.03 0.02 0.02 0.02 0.01 0.02 0.02 0.02 0.02 0.02 0.02 0.01 0.01 0.01 0.01 0.01 0.01 0.01 0.02 0.03 0.04 0.05 0.06 0.06 0.06 0.06 0.05 0.04 0.03 0.02 0.02 0.01 0.01 0.00 0.00
0.06 0.04 0.04 0.04 0.05 0.05 0.06 0.06 0.06 0.05 0.05 0.04 0.03 0.03 0.02 0.02 0.01 0.01 0.02 0.02 0.02 0.02 0.01 0.02 0.02 0.02 0.02 0.02 0.02 0.02 0.02 0.02 0.02 0.01 0.01 0.01 0.00 0.00
0.11 0.08 0.08 0.09 0.09 0.10 0.10 0.09 0.08 0.07 0.06 0.05 0.04 0.03 0.03 0.02 0.03 0.03 0.04 0.04 0.03 0.03 0.02 0.02 0.02 0.02 0.02 0.02 0.01 0.01 0.01 0.02 0.01 0.01 0.01 0.01 0.01 0.00
0.14 0.13 0.13 0.14 0.14 0.13 0.11 0.10 0.08 0.07 0.06 0.05 0.04 0.03 0.03 0.03 0.04 0.04 0.03 0.03 0.02 0.02 0.02 0.02 0.01 0.01 0.01 0.01 0.01 0.01 0.01 0.01 0.01 0.01 0.00 0.01 0.01 0.01
0.14 0.15 0.16 0.15 0.12 0.09 0.08 0.07 0.06 0.06 0.05 0.05 0.04 0.04 0.04 0.04 0.04 0.04 0.03 0.03 0.03 0.03 0.03 0.02 0.02 0.01 0.01 0.01 0.01 0.01 0.01 0.01 0.01 0.01 0.01 0.01 0.01 0.02
0.10 0.09 0.08 0.08 0.07 0.06 0.06 0.06 0.07 0.07 0.07 0.06 0.07 0.07 0.07 0.07 0.07 0.06 0.06 0.06 0.05 0.05 0.04 0.03 0.03 0.02 0.02 0.01 0.01 0.01 0.01 0.01 0.01 0.01 0.01 0.01 0.01 0.01
0.07 0.07 0.07 0.06 0.07 0.07 0.06 0.06 0.06 0.06 0.07 0.08 0.08 0.08 0.08 0.08 0.08 0.08 0.07 0.06 0.06 0.05 0.05 0.04 0.03 0.03 0.03 0.03 0.02 0.02 0.01 0.01 0.01 0.01 0.01 0.01 0.01 0.01
0.06 0.06 0.07 0.07 0.07 0.07 0.07 0.07 0.06 0.06 0.06 0.05 0.05 0.05 0.04 0.04 0.04 0.04 0.03 0.03 0.03 0.03 0.03 0.03 0.03 0.02 0.02 0.02 0.02 0.01 0.01 0.01 0.00 0.00 0.01 0.01 0.01 0.01
MSLP
1018.64 1018.83 1019.03 1019.23 1019.41 1019.55 1019.63 1019.65 1019.61 1019.53 1019.41 1019.29 1019.16 1019.04 1018.93 1018.84 1018.76 1018.70 1018.65 1018.63 1018.62 1018.64 1018.67 1018.71 1018.75 1018.77 1018.76 1018.73 1018.65 1018.55 1018.43 1018.30 1018.18 1018.08 1018.01 1017.96 1017.93 1017.92
1018.51 1018.66 1018.83 1019.00 1019.17 1019.31 1019.41 1019.47 1019.49 1019.47 1019.42 1019.34 1019.24 1019.12 1018.98 1018.84 1018.69 1018.55 1018.42 1018.31 1018.23 1018.18 1018.17 1018.18 1018.21 1018.23 1018.23 1018.19 1018.13 1018.03 1017.90 1017.77 1017.64 1017.53 1017.43 1017.36 1017.31 1017.27
1018.30 1018.43 1018.57 1018.72 1018.88 1019.03 1019.17 1019.28 1019.36 1019.41 1019.43 1019.40 1019.33 1019.22 1019.07 1018.88 1018.67 1018.45 1018.23 1018.03 1017.88 1017.77 1017.71 1017.69 1017.69 1017.70 1017.70 1017.67 1017.61 1017.51 1017.39 1017.25 1017.11 1016.97 1016.86 1016.76 1016.68 1016.60
1018.03 1018.15 1018.27 1018.42 1018.58 1018.74 1018.91 1019.06 1019.20 1019.31 1019.38 1019.41 1019.38 1019.28 1019.12 1018.90 1018.64 1018.35 1018.07 1017.80 1017.58 1017.41 1017.30 1017.24 1017.22 1017.22 1017.21 1017.18 1017.12 1017.02 1016.89 1016.74 1016.58 1016.43 1016.29 1016.16 1016.05 1015.94
1017.73 1017.85 1017.97 1018.11 1018.27 1018.44 1018.63 1018.81 1018.98 1019.13 1019.24 1019.30 1019.30 1019.22 1019.06 1018.84 1018.55 1018.23 1017.90 1017.59 1017.32 1017.11 1016.96 1016.87 1016.82 1016.79 1016.77 1016.73 1016.65 1016.54 1016.40 1016.23 1016.06 1015.88 1015.72 1015.57 1015.42 1015.29
1017.43 1017.56 1017.69 1017.83 1017.98 1018.15 1018.32 1018.50 1018.68 1018.83 1018.96 1019.04 1019.05 1018.99 1018.85 1018.64 1018.36 1018.04 1017.71 1017.38 1017.09 1016.86 1016.68 1016.55 1016.47 1016.41 1016.36 1016.28 1016.18 1016.05 1015.89 1015.70 1015.51 1015.32 1015.14 1014.97 1014.81 1014.65
1017.13 1017.28 1017.42 1017.56 1017.70 1017.84 1017.99 1018.14 1018.28 1018.41 1018.52 1018.60 1018.62 1018.58 1018.47 1018.29 1018.05 1017.77 1017.46 1017.15 1016.87 1016.63 1016.43 1016.27 1016.15 1016.05 1015.95 1015.83 1015.69 1015.52 1015.33 1015.13 1014.93 1014.73 1014.54 1014.36 1014.19 1014.02
1016.82 1017.00 1017.16 1017.29 1017.41 1017.52 1017.61 1017.70 1017.79 1017.87 1017.94 1017.99 1018.01 1017.99 1017.92 1017.80 1017.62 1017.40 1017.15 1016.89 1016.63 1016.40 1016.18 1016.00 1015.83 1015.68 1015.52 1015.35 1015.16 1014.95 1014.73 1014.51 1014.29 1014.09 1013.90 1013.72 1013.55 1013.39
1016.47 1016.68 1016.86 1016.99 1017.09 1017.15 1017.18 1017.20 1017.22 1017.23 1017.25 1017.28 1017.30 1017.30 1017.27 1017.21 1017.11 1016.97 1016.79 1016.59 1016.37 1016.15 1015.93 1015.71 1015.50 1015.28 1015.06 1014.83 1014.59 1014.34 1014.09 1013.85 1013.63 1013.42 1013.23 1013.06 1012.90 1012.73
1016.05 1016.28 1016.47 1016.61 1016.69 1016.72 1016.70 1016.66 1016.61 1016.56 1016.53 1016.53 1016.54 1016.56 1016.58 1016.58 1016.56 1016.50 1016.40 1016.25 1016.08 1015.87 1015.64 1015.40 1015.14 1014.87 1014.58 1014.30 1014.01 1013.72 1013.44 1013.19 1012.95 1012.74 1012.55 1012.38 1012.22 1012.04
1015.51 1015.77 1015.99 1016.14 1016.22 1016.23 1016.18 1016.10 1016.00 1015.91 1015.85 1015.82 1015.83 1015.87 1015.93 1015.99 1016.03 1016.04 1016.00 1015.91 1015.76 1015.57 1015.34 1015.07 1014.77 1014.45 1014.12 1013.79 1013.46 1013.14 1012.84 1012.56 1012.32 1012.09 1011.90 1011.71 1011.53 1011.33
1014.86 1015.15 1015.39 1015.57 1015.67 1015.69 1015.65 1015.56 1015.45 1015.34 1015.26 1015.22 1015.24 1015.29 1015.38 1015.48 1015.56 1015.62 1015.62 1015.57 1015.44 1015.26 1015.02 1014.73 1014.41 1014.06 1013.70 1013.34 1012.98 1012.64 1012.32 1012.02 1011.75 1011.51 1011.28 1011.06 1010.85 1010.61
1014.13 1014.45 1014.73 1014.95 1015.10 1015.16 1015.15 1015.09 1014.99 1014.89 1014.82 1014.79 1014.81 1014.87 1014.97 1015.08 1015.19 1015.26 1015.28 1015.24 1015.13 1014.95 1014.71 1014.42 1014.08 1013.72 1013.35 1012.97 1012.60 1012.24 1011.90 1011.58 1011.28 1011.00 1010.72 1010.45 1010.17 1009.88
1013.38 1013.73 1014.06 1014.34 1014.55 1014.68 1014.73 1014.72 1014.68 1014.62 1014.56 1014.54 1014.56 1014.62 1014.71 1014.81 1014.90 1014.97 1014.99 1014.94 1014.83 1014.65 1014.42 1014.13 1013.80 1013.45 1013.08 1012.70 1012.33 1011.96 1011.60 1011.24 1010.89 1010.54 1010.20 1009.85 1009.49 1009.13
1012.70 1013.08 1013.46 1013.81 1014.10 1014.31 1014.45 1014.52 1014.53 1014.51 1014.49 1014.48 1014.49 1014.53 1014.59 1014.66 1014.72 1014.75 1014.74 1014.68 1014.56 1014.38 1014.15 1013.88 1013.57 1013.23 1012.88 1012.52 1012.14 1011.75 1011.35 1010.95 1010.53 1010.11 1009.67 1009.23 1008.78 1008.33
1012.18 1012.59 1013.03 1013.45 1013.82 1014.12 1014.34 1014.48 1014.56 1014.59 1014.60 1014.59 1014.58 1014.59 1014.60 1014.61 1014.61 1014.59 1014.54 1014.45 1014.31 1014.13 1013.91 1013.66 1013.37 1013.06 1012.72 1012.36 1011.98 1011.57 1011.13 1010.65 1010.16 1009.64 1009.10 1008.55 1008.00 1007.46
1011.89 1012.35 1012.84 1013.32 1013.76 1014.14 1014.43 1014.64 1014.77 1014.84 1014.85 1014.83 1014.80 1014.75 1014.70 1014.64 1014.58 1014.49 1014.39 1014.27 1014.11 1013.92 1013.71 1013.47 1013.20 1012.90 1012.57 1012.20 1011.79 1011.34 1010.84 1010.29 1009.70 1009.08 1008.44 1007.78 1007.14 1006.51
1011.91 1012.40 1012.93 1013.46 1013.95 1014.38 1014.73 1014.98 1015.15 1015.22 1015.23 1015.18 1015.10 1015.00 1014.87 1014.74 1014.60 1014.46 1014.30 1014.13 1013.95 1013.74 1013.52 1013.28 1013.01 1012.71 1012.36 1011.97 1011.51 1011.00 1010.43 1009.80 1009.12 1008.40 1007.66 1006.91 1006.18 1005.48
1012.24 1012.76 1013.31 1013.86 1014.38 1014.84 1015.21 1015.47 1015.64 1015.70 1015.69 1015.60 1015.46 1015.29 1015.09 1014.89 1014.68 1014.47 1014.25 1014.04 1013.82 1013.59 1013.35 1013.08 1012.79 1012.45 1012.06 1011.62 1011.11 1010.53 1009.88 1009.17 1008.40 1007.60 1006.78 1005.96 1005.17 1004.42
1012.85 1013.37 1013.93 1014.49 1015.01 1015.46 1015.81 1016.06 1016.20 1016.24 1016.18 1016.04 1015.84 1015.60 1015.34 1015.07 1014.79 1014.51 1014.24 1013.98 1013.71 1013.44 1013.16 1012.85 1012.50 1012.11 1011.66 1011.15 1010.56 1009.91 1009.18 1008.40 1007.57 1006.72 1005.85 1004.99 1004.16 1003.38
1013.67 1014.20 1014.74 1015.27 1015.76 1016.17 1016.49 1016.70 1016.79 1016.77 1016.66 1016.47 1016.21 1015.91 1015.58 1015.24 1014.91 1014.58 1014.25 1013.93 1013.61 1013.28 1012.93 1012.55 1012.13 1011.66 1011.14 1010.55 1009.89 1009.17 1008.39 1007.56 1006.70 1005.82 1004.94 1004.08 1003.26 1002.48
1014.64 1015.14 1015.65 1016.14 1016.57 1016.92 1017.17 1017.32 1017.35 1017.27 1017.09 1016.84 1016.52 1016.16 1015.78 1015.40 1015.01 1014.62 1014.24 1013.86 1013.47 1013.07 1012.65 1012.19 1011.68 1011.13 1010.52 1009.85 1009.13 1008.36 1007.55 1006.72 1005.87 1005.01 1004.17 1003.34 1002.55 1001.80
1015.67 1016.12 1016.58 1016.99 1017.36 1017.63 1017.80 1017.87 1017.82 1017.67 1017.44 1017.12 1016.75 1016.35 1015.92 1015.48 1015.05 1014.61 1014.18 1013.74 1013.28 1012.80 1012.30 1011.75 1011.16 1010.52 1009.84 1009.11 1008.35 1007.57 1006.77 1005.96 1005.16 1004.38 1003.61 1002.87 1002.15 1001.45
Thickness
5721 5720 5719 5719 5718 5718 5716 5715 5709 5703 5703 5707 5709 5711 5710 5709 5708 5707 5706 5704 5703 5701 5699 5698 5697 5695 5694 5693 5691 5690 5689 5688 5687 5686 5685 5684 5683 5682
5719 5718 5718 5718 5717 5716 5715 5714 5713 5709 5705 5708 5708 5709 5709 5709 5708 5706 5705 5703 5702 5700 5699 5697 5696 5694 5693 5692 5690 5689 5688 5687 5686 5684 5683 5682 5681 5680
5717 5717 5716 5716 5715 5715 5714 5713 5711 5710 5706 5707 5707 5707 5707 5707 5706 5704 5703 5702 5701 5700 5698 5697 5695 5694 5692 5691 5689 5688 5687 5685 5684 5683 5681 5680 5678 5677
5715 5715 5714 5714 5713 5713 5712 5711 5710 5709 5707 5705 5705 5705 5705 5704 5703 5702 5701 5700 5699 5698 5697 5696 5695 5693 5691 5689 5688 5686 5685 5684 5682 5680 5679 5677 5676 5675
5714 5714 5713 5712 5711 5710 5710 5709 5709 5708 5706 5704 5703 5702 5701 5700 5699 5699 5698 5697 5697 5696 5695 5694 5693 5691 5689 5687 5686 5684 5683 5681 5679 5678 5676 5675 5673 5672
5713 5713 5712 5712 5711 5709 5708 5708 5706 5705 5703 5701 5699 5698 5697 5696 5695 5694 5693 5693 5692 5693 5692 5691 5690 5688 5686 5684 5683 5681 5680 5678 5676 5674 5673 5671 5669 5668
5711 5711 5711 5711 5710 5709 5708 5706 5705 5702 5700 5698 5696 5694 5693 5692 5691 5690 5688 5688 5687 5687 5687 5686 5685 5684 5682 5680 5679 5677 5676 5674 5672 5671 5669 5667 5665 5663
5708 5708 5709 5709 5708 5707 5707 5706 5704 5701 5698 5695 5693 5691 5690 5690 5688 5685 5683 5681 5681 5683 5680 5681 5680 5679 5677 5676 5675 5673 5671 5669 5667 5665 5663 5661 5660 5658
5707 5706 5706 5707 5706 5705 5704 5703 5701 5700 5698 5696 5693 5690 5689 5687 5684 5681 5678 5677 5676 5677 5674 5675 5674 5673 5673 5672 5670 5668 5666 5663 5661 5659 5657 5655 5653 5651
5706 5705 5704 5704 5703 5702 5700 5698 5697 5696 5694 5692 5691 5690 5688 5685 5681 5679 5676 5672 5671 5669 5666 5666 5669 5668 5668 5666 5664 5662 5659 5657 5654 5652 5650 5648 5646 5644
5704 5703 5702 5701 5700 5698 5695 5693 5692 5691 5690 5688 5686 5684 5682 5679 5675 5672 5668 5665 5665 5665 5660 5658 5661 5660 5661 5661 5659 5656 5653 5650 5647 5644 5642 5640 5638 5635
5700 5699 5699 5697 5696 5693 5691 5689 5686 5686 5684 5682 5679 5677 5675 5672 5669 5666 5664 5660 5658 5657 5656 5651 5652 5650 5652 5654 5651 5648 5644 5642 5639 5636 5634 5631 5628 5625
5696 5696 5695 5694 5691 5689 5687 5685 5684 5681 5678 5675 5673 5670 5668 5665 5663 5659 5657 5654 5651 5650 5649 5643 5643 5640 5637 5641 5642 5640 5635 5632 5629 5627 5625 5622 5619 5615
5694 5693 5692 5689 5687 5684 5682 5680 5677 5673 5670 5667 5665 5663 5661 5658 5656 5653 5650 5646 5644 5642 5640 5635 5632 5630 5627 5626 5628 5629 5626 5622 5618 5617 5615 5613 5610 5606
5690 5688 5686 5683 5680 5678 5675 5672 5668 5665 5663 5659 5657 5655 5653 5650 5647 5644 5641 5637 5635 5632 5629 5625 5621 5619 5615 5614 5614 5614 5612 5611 5608 5605 5603 5601 5599 5596
5682 5680 5677 5674 5672 5670 5667 5664 5661 5658 5655 5652 5650 5647 5643 5640 5636 5634 5631 5628 5625 5624 5620 5615 5611 5608 5605 5603 5601 5601 5599 5597 5597 5593 5591 5590 5587 5585
5675 5672 5669 5666 5663 5660 5657 5654 5651 5648 5645 5642 5639 5636 5633 5630 5627 5623 5620 5617 5614 5612 5610 5606 5601 5597 5595 5592 5591 5590 5588 5586 5584 5581 5578 5578 5578 5575
5667 5664 5661 5658 5655 5653 5649 5646 5642 5639 5635 5632 5628 5625 5622 5619 5616 5613 5608 5605 5602 5600 5597 5594 5589 5586 5585 5584 5580 5578 5576 5574 5572 5568 5565 5565 5568 5567
5658 5656 5653 5649 5646 5643 5640 5636 5633 5629 5625 5621 5618 5615 5611 5608 5605 5602 5598 5594 5591 5588 5585 5581 5576 5572 5572 5574 5574 5566 5562 5561 5559 5558 5555 5553 5555 5556
5648 5646 5642 5639 5635 5632 5629 5625 5622 5618 5614 5611 5608 5604 5601 5597 5594 5590 5587 5583 5581 5577 5573 5569 5564 5560 5557 5556 5557 5555 5549 5547 5546 5546 5545 5544 5545 5546
5637 5633 5630 5627 5624 5620 5617 5614 5610 5606 5602 5599 5595 5592 5588 5584 5581 5578 5575 5570 5566 5563 5560 5557 5552 5546 5543 5540 5541 5544 5541 5536 5533 5532 5533 5534 5537 5538
5625 5622 5618 5615 5612 5608 5605 5601 5597 5593 5589 5585 5581 5578 5574 5570 5567 5563 5560 5557 5553 5549 5546 5542 5538 5534 5530 5529 5530 5530 5531 5528 5526 5524 5522 5522 5522 5527
5612 5608 5605 5601 5598 5594 5590 5587 5583 5579 5574 5570 5567 5563 5560 5556 5552 5549 5546 5542 5539 5535 5532 5529 5526 5523 5521 5518 5518 5518 5518 5518 5518 5519 5519 5517 5515 5515